Regional Weather Roundup
Issued by NWS Albany, NY

Home | Current Version | Previous Version | Graphics & Text | Print | Product List | Glossary Off
Versions: 1 2 3 4 5 6 7 8 9 10 11 12 13 14 15 16 17 18 19 20 21 22 23 24 25 26 27 28

000
ASUS41 KALY 271910
RWRALY

NEW YORK STATE HOURLY WEATHER ROUNDUP
NATIONAL WEATHER SERVICE ALBANY NY
300 PM EDT FRI MAY 27 2016

NOTE: "FAIR" INDICATES FEW OR NO CLOUDS BELOW 12,000 FEET WITH NO
SIGNIFICANT WEATHER AND/OR NO OBSTRUCTIONS TO VISIBILITY.

NYZ032-033-038>043-046>054-057>066-NYZ062>081-082-084-272000-
EAST


CITY           SKY/WX    TMP DP  RH WIND       PRES   REMARKS
ALBANY         LGT RAIN  79  67  66 S7        30.00S
GLENS FALLS    MOSUNNY   88  64  44 SW17G23   29.96F
POUGHKEEPSIE   MOSUNNY   88  65  46 S8        30.00S HX  90
NEWBURGH       RAIN      75  72  88 W14       30.05R FOG
MONTGOMERY     CLOUDY    76  69  79 E5        30.01S
WHITE PLAINS   SUNNY     83  66  56 SE13G18   30.04F
ISLIP          MOSUNNY   72  62  71 S13       30.07F
NEW YORK CITY  MOSUNNY   84  69  60 SE13G20   30.03F
CENTRAL PARK   SUNNY     82  63  52 VRB6G16   30.06F
$$

NYZ005>009-017-018-044>046-055-056-272000-
CENTRAL


CITY           SKY/WX    TMP DP  RH WIND       PRES   REMARKS
FULTON         LGT RAIN  79  71  76 W8        29.99R
SYRACUSE       CLOUDY    85  63  47 W6        29.96S
ROME           SUNNY     86  64  47 VRB5      29.97F
ELMIRA         PTSUNNY   85  58  39 W10G23    29.99F
BINGHAMTON     MOSUNNY   81  62  52 S10       30.04F
MONTICELLO     MOSUNNY   77  70  78 SE8       30.08F
$$

NYZ026>034-041>043-087-272000-
NORTH


CITY           SKY/WX    TMP DP  RH WIND       PRES   REMARKS
WATERTOWN      SUNNY     80  67  64 W14       29.97R
FORT DRUM      NOT AVBL
MASSENA        MOSUNNY   87  65  47 SW16G26   29.91S
SARANAC LAKE   MOSUNNY   85  55  35 SW15G24   29.97F
PLATTSBURGH    MOSUNNY   88  64  44 SE17      29.88F
$$

NYZ001>004-010>016-019>021-085-272000-
WEST


CITY           SKY/WX    TMP DP  RH WIND       PRES   REMARKS
NIAGARA FALLS  MOSUNNY   84  63  49 SW17G26   29.99S
BUFFALO        MOSUNNY   80  64  58 SW12      30.02R
DUNKIRK        SUNNY     75  63  66 W10       30.03S
JAMESTOWN      SUNNY     81  59  47 SW9       30.06S
WELLSVILLE     CLOUDY    79  59  50 W5        30.08S
ROCHESTER      MOSUNNY   85  62  46 NW10      29.98S
PENN YAN       PTSUNNY   87  61  41 S7        30.00S
$$

             KEY
       WCI = WIND CHILL INDEX
       VSB = VISIBILITY
       HX  = HEAT INDEX
$$




USA.gov is the U.S. government's official web portal to all federal, state and local government web resources and services.